KB4SHP Weather Reports


time (UTC)temp
C
wind
direction
speed
KPH
gust
KPH
rain 1hr
cm
rain 24hr
cm
rain mn
cm
humidity
%
barometer
mb
20260503054503 2 294 0.0 0.0 0.00 0.00 0.00 86 1016.8
20260503053003 2 294 0.0 0.0 0.00 0.00 0.00 85 1016.9
20260503051504 3 294 0.0 0.0 0.00 0.00 0.00 84 1016.8
20260503050006 3 294 0.0 0.0 0.00 0.00 0.00 83 1016.6
20260503044503 3 294 0.0 0.0 0.00 0.00 0.00 81 1016.7
20260503043003 4 294 0.0 0.0 0.00 0.00 0.00 80 1016.7
20260503041504 4 294 0.0 0.0 0.00 0.00 0.00 77 1016.4
20260503040008 4 294 0.0 0.0 0.00 0.00 0.00 79 1016.3
20260503033005 5 294 0.0 0.0 0.00 0.00 0.00 79 1016.0
20260503031504 5 294 0.0 0.0 0.00 0.00 0.00 75 1015.8
20260503024504 7 294 0.0 0.0 0.00 0.00 0.00 67 1015.9
20260503023004 8 294 0.0 0.0 0.00 0.00 0.00 61 1015.7
20260503021504 9 294 0.0 0.0 0.00 0.00 0.00 54 1015.6
20260503020006 10 294 0.0 1.6 0.00 0.00 0.00 51 1015.5
20260503014504 11 294 0.0 1.6 0.00 0.00 0.00 49 1015.3
20260503013005 11 297 0.0 4.8 0.00 0.00 0.00 47 1015.1
20260503011504 11 320 0.0 1.6 0.00 0.00 0.00 46 1014.9
20260503010006 12 308 0.0 4.8 0.00 0.00 0.00 45 1014.7
20260503004505 12 10 0.0 3.2 0.00 0.00 0.00 44 1014.4
20260503003005 13 288 0.0 1.6 0.00 0.00 0.00 43 1014.2
20260503001505 13 293 0.0 3.2 0.00 0.00 0.00 42 1013.8
20260503000004 13 295 0.0 6.4 0.00 0.00 0.00 42 1013.7
20260502234505 14 293 0.0 1.6 0.00 0.00 0.00 41 1013.5
20260502233005 14 23 1.6 4.8 0.00 0.00 0.00 41 1013.3
20260502231505 14 297 1.6 4.8 0.00 0.00 0.00 40 1013.1
20260502223005 15 231 0.0 0.0 0.00 0.00 0.00 56 1012.6
20260502221504 15 231 0.0 0.0 0.00 0.00 0.00 56 1012.4
20260502220007 15 231 0.0 0.0 0.00 0.00 0.00 49 1012.2
20260502214505 16 237 0.0 1.6 0.00 0.00 0.00 43 1012.0
20260502213003 16 131 0.0 0.0 0.00 0.00 0.00 43 1012.0
20260502211505 16 151 0.0 0.0 0.00 0.00 0.00 41 1011.8
20260502210003 16 153 0.0 1.6 0.00 0.00 0.00 43 1011.8
20260502203003 16 72 0.0 1.6 0.00 0.00 0.00 41 1011.9
20260502201503 16 55 1.6 6.4 0.00 0.00 0.00 42 1012.1
20260502194505 16 256 0.0 6.4 0.00 0.00 0.00 39 1012.7
20260502193005 16 136 0.0 4.8 0.00 0.00 0.00 43 1012.8
20260502191504 15 9 0.0 1.6 0.00 0.00 0.00 44 1013.1
20260502190003 14 63 0.0 1.6 0.00 0.00 0.00 43 1013.3
20260502184503 13 79 0.0 3.2 0.00 0.00 0.00 47 1013.5
20260502183002 13 290 0.0 1.6 0.00 0.00 0.00 46 1013.7
20260502163003 11 29 0.0 4.8 0.00 0.00 0.00 51 1015.4
20260502161503 11 44 0.0 4.8 0.00 0.00 0.00 53 1015.7
20260502151503 11 299 0.0 6.4 0.00 0.00 0.00 53 1015.8
20260502123004 10 309 0.0 1.6 0.00 0.00 0.00 71 1014.6
20260502121502 10 344 0.0 0.0 0.00 0.00 0.00 75 1014.6
20260502110004 9 51 0.0 0.0 0.00 0.00 0.00 88 1014.4
20260502103002 9 50 0.0 0.0 0.00 0.00 0.00 87 1014.3
20260502101503 9 50 0.0 0.0 0.00 0.00 0.00 85 1014.3
20260502091502 10 50 0.0 1.6 0.00 0.00 0.00 85 1014.1
20260502071503 10 217 0.0 0.0 0.00 0.00 0.00 88 1013.3
20260502070005 10 217 0.0 0.0 0.00 0.00 0.00 87 1013.6
20260502064502 10 217 0.0 0.0 0.00 0.00 0.00 87 1013.7